Location: La Tine
(46.4708°N, 7.0525°E)
Time: 10:53:18
(UTC+00:00)

USA 186 - Pass Details

Date: 18 September 2020
Orbit: 261 x 425 km, 96.9° (Epoch: 12 October)

Event Time Altitude Azimuth Distance (km) Brightness Sun altitude
Exits shadow 18:49:23 18° 147° (SSE) 1,067 3.4 -13.1°
Maximum altitude 18:51:30 53° 74° (ENE) 506 1.8 -13.5°
Drops below altitude 10° 18:54:39 10° 357° (N) 1,507 4.8 -14.0°
Sets 18:56:44 0° 353° (N) 2,392 5.9 -14.4°
